Wind_Speed
13 14 15 15 16 16 16 16 14 15 15 15 16 17 18 20 23 21 22 19 13 17 16 12 7 5 5 6 10 4 1 3 4 6 6 14 7 4 10 12 6 7 8 11 30
13 13 14 16 18 16 14 14 13 14 15 15 16 17 18 21 23 23 15 13 15 18 15 12 9 5 7 6 6 5 3 7 3 5 3 1 11 12 7 12 8 15 11 25 30
12 14 14 16 17 14 13 13 14 14 15 16 17 17 17 20 22 6 9 9 9 20 18 13 11 10 18 10 7 6 5 2 6 4 6 17 10 10 13 3 15 20 31 31 28
14 14 15 17 16 14 12 12 13 13 14 16 17 19 18 16 5 12 6 5 6 11 22 20 14 5 5 6 13 2 4 5 16 7 6 3 13 7 10 6 10 17 25 28 26
13 14 16 15 14 12 11 11 12 12 13 14 17 19 23 11 24 12 13 10 7 9 25 23 18 10 4 5 4 5 4 7 7 7 5 13 7 6 9 10 11 16 22 24 24
12 14 14 13 14 13 11 11 12 13 14 16 18 20 20 17 24 13 13 11 4 11 21 25 11 18 8 7 4 6 9 5 4 9 10 8 3 4 2 11 11 16 21 21 19
12 13 13 13 14 13 12 12 12 13 15 16 17 20 21 41 23 22 16 12 12 6 14 26 18 16 9 5 11 6 5 4 2 4 4 9 5 6 3 10 10 11 16 17 17
11 12 13 13 13 13 12 12 13 15 17 17 18 19 16 15 11 15 17 15 15 12 15 20 18 21 20 9 3 5 5 4 1 7 3 3 3 7 10 5 3 7 11 14 16
10 11 12 12 13 13 12 12 10 14 14 14 15 8 16 17 16 18 12 17 12 8 13 18 19 20 14 8 3 1 5 4 2 4 5 3 4 2 5 15 11 8 11 17 18
8 10 10 10 10 10 11 11 9 12 5 9 7 10 11 16 25 28 11 19 14 11 11 14 10 4 3 5 11 5 4 3 6 6 3 3 5 6 8 11 11 10 8 19 23
6 7 8 8 9 13 15 12 13 6 15 12 12 18 27 20 23 10 8 14 15 12 5 10 3 7 5 6 6 7 8 10 3 6 5 5 6 8 11 10 13 12 10 6 22
5 5 6 9 11 13 15 12 13 13 17 24 21 27 29 24 16 11 9 14 7 5 6 2 7 8 10 13 16 13 6 4 4 6 5 7 10 9 8 4 12 13 8 7 2
6 4 5 8 10 11 13 14 9 14 6 16 8 11 14 7 11 14 14 17 3 5 6 5 7 11 10 15 17 15 8 6 7 3 3 5 6 6 3 9 11 9 8 1 3
6 7 6 7 6 13 8 11 20 9 2 5 2 3 5 6 5 2 7 3 3 8 5 6 6 13 14 11 10 11 5 8 13 8 5 6 4 5 7 6 6 10 5 2 2
7 8 10 11 13 11 11 19 13 3 5 9 1 3 5 4 6 3 4 4 3 1 5 4 5 3 5 3 2 4 5 9 7 6 5 3 3 6 7 5 4 7 6 4 1
7 10 11 14 13 8 16 15 8 3 3 5 5 3 3 6 2 2 2 0 8 2 4 2 5 2 3 1 4 7 7 8 5 4 1 8 7 3 4 6 4 6 5 4 4
7 10 12 15 12 14 15 11 4 2 3 7 6 11 1 5 5 2 1 2 1 2 4 6 2 3 4 6 5 6 6 3 2 1 5 4 5 5 5 6 8 11 9 9 13
9 10 12 14 17 15 13 2 1 3 3 5 7 9 6 6 5 2 0 4 3 3 1 3 1 4 2 4 5 4 6 5 6 5 4 3 4 4 5 14 17 15 13 12 15
9 11 12 10 11 9 6 1 4 3 3 3 5 6 5 5 3 5 2 3 3 3 3 1 1 2 5 3 4 4 2 4 3 1 4 3 3 4 5 7 15 17 16 13 14
9 11 8 6 4 7 2 5 3 2 5 3 3 3 3 3 5 6 2 3 3 2 1 3 3 2 2 2 2 2 3 3 2 2 3 2 4 4 8 7 7 10 16 16 14
6 5 2 5 2 2 3 6 4 4 5 4 5 7 7 3 3 4 3 4 5 6 6 2 3 3 3 2 5 1 1 1 3 4 4 1 4 6 10 11 11 14 18 18 16
2 2 1 2 3 4 3 5 4 0 3 3 3 6 9 5 2 2 2 2 6 3 4 5 2 2 2 0 0 1 3 5 4 4 1 4 5 5 11 14 21 22 21 19 18
2 5 7 7 2 3 7 10 13 2 4 1 3 1 3 3 1 4 4 2 5 5 0 4 2 2 5 5 4 1 3 3 3 3 1 4 4 3 10 11 21 24 22 19 16
3 2 4 11 6 3 6 11 7 4 4 1 3 3 2 4 5 4 2 2 1 1 4 2 2 4 5 3 3 3 4 4 5 4 2 4 5 4 6 9 16 22 22 18 15
4 4 2 3 2 4 5 7 16 12 4 4 3 4 4 4 3 2 2 3 3 3 3 3 1 2 1 2 2 1 4 5 5 5 4 3 5 8 9 10 23 26 24 23 22
2 4 6 5 8 4 4 5 7 11 5 4 3 6 1 3 2 3 2 3 2 2 1 1 1 2 1 2 0 2 4 5 4 4 4 2 3 1 6 16 15 21 21 23 18
1 8 7 6 5 2 3 5 17 5 3 3 0 3 4 3 2 2 1 5 4 5 3 3 2 2 1 2 2 5 5 5 4 2 5 3 4 4 4 9 14 16 18 18 19
Wind_Direction
328 323 319 319 319 319 314 314 321 325 325 326 325 322 320 315 305 299 282 268 253 226 225 226 238 223 190 232 208 208 48 254 234 184 234 200 121 110 115 127 97 108 159 177 165
323 318 320 326 326 323 317 316 321 321 324 327 326 323 323 319 312 301 303 275 244 233 227 223 213 298 216 217 198 165 169 230 163 194 16 123 136 137 132 130 107 97 128 152 163
327 335 329 326 326 322 322 321 318 319 324 331 329 326 325 324 319 161 79 37 320 226 221 215 230 281 221 225 205 200 202 344 297 331 252 186 171 158 132 190 168 154 149 160 169
337 330 324 320 322 316 318 322 321 316 322 327 326 323 322 317 293 162 161 78 2 233 212 221 230 239 186 192 230 208 260 347 312 241 33 198 165 149 156 133 163 205 174 171 175
332 328 328 323 328 320 309 314 313 310 313 317 318 319 320 303 261 240 249 329 338 282 210 203 210 221 192 193 206 172 236 292 360 65 331 293 140 160 164 147 124 155 180 179 182
332 333 333 331 332 327 315 315 318 316 314 315 315 313 314 287 303 264 251 278 271 279 225 205 207 210 210 222 179 180 225 227 42 45 30 17 105 125 129 162 130 144 173 182 183
335 336 342 345 349 346 336 328 323 317 310 310 310 308 294 275 300 284 248 243 210 244 242 212 197 242 240 188 193 124 100 116 100 107 356 2 17 321 102 157 141 150 176 183 186
341 346 347 353 355 346 336 330 326 318 312 312 305 303 273 324 329 309 220 240 219 222 226 211 216 248 251 159 84 116 87 112 261 131 35 77 186 10 48 61 142 175 191 199 192
351 354 353 1 360 346 339 338 332 314 314 304 300 307 271 326 323 328 267 237 213 221 204 223 235 252 231 140 100 219 166 148 153 162 133 126 224 268 38 14 325 245 194 197 191
357 0 2 6 3 349 354 348 326 309 316 320 302 293 273 306 320 318 251 216 230 241 232 234 235 152 153 138 185 163 159 192 170 205 124 169 237 271 293 265 267 247 237 205 195
353 8 6 354 1 349 356 14 359 342 321 269 262 260 284 312 311 312 220 196 222 258 184 216 135 201 194 151 187 184 188 191 140 170 120 223 256 240 234 248 240 203 266 275 213
336 357 350 343 3 354 4 14 349 328 307 305 274 259 278 290 293 319 226 193 190 188 169 82 209 222 185 192 208 228 193 132 12 133 140 195 230 228 233 223 190 165 158 234 310
318 327 344 348 352 9 9 7 347 325 291 297 288 268 289 297 235 299 170 204 189 174 177 165 218 223 219 207 210 226 189 188 169 180 350 112 298 259 246 159 136 132 134 187 342
301 308 328 342 357 8 337 334 323 331 317 273 244 288 255 270 269 158 180 245 281 192 161 216 271 225 220 249 215 219 221 148 137 126 198 155 251 297 168 138 102 102 84 306 242
300 300 319 333 333 357 333 330 333 357 20 318 273 300 308 279 294 22 180 301 319 332 129 249 257 200 190 176 104 216 87 139 144 154 109 200 102 268 126 123 127 79 62 356 256
296 298 316 315 334 357 331 352 329 46 303 336 324 302 300 296 296 171 350 182 289 238 73 154 251 325 103 152 161 153 77 42 56 99 28 221 152 268 213 165 135 99 83 44 58
292 296 308 314 318 310 334 333 8 133 258 302 345 347 284 299 355 133 127 271 90 62 84 264 344 89 87 89 358 78 86 46 31 46 220 279 148 229 163 151 152 137 114 92 99
303 293 294 318 317 310 328 44 326 6 92 43 356 340 360 327 335 358 112 305 5 87 215 127 331 12 251 156 175 156 148 151 175 184 225 356 171 235 165 126 132 124 119 115 110
312 298 294 335 321 335 351 3 244 340 35 128 47 13 331 305 328 338 158 156 55 51 143 273 326 331 52 19 107 237 178 195 115 285 93 179 66 12 128 121 123 129 130 125 119
326 311 312 353 316 343 18 251 262 145 122 76 131 81 281 282 351 1 349 354 60 36 337 258 84 352 268 31 30 168 195 79 358 201 217 196 166 209 180 168 156 136 137 134 137
333 319 343 4 168 155 248 249 322 187 173 203 199 187 250 317 293 338 328 24 32 327 312 305 119 275 67 198 197 355 37 76 129 149 170 163 261 206 177 171 161 160 154 151 149
326 336 154 129 103 205 248 260 299 173 200 271 235 226 202 182 336 277 326 315 33 327 346 1 99 152 217 259 108 216 204 147 121 269 206 136 254 292 180 169 160 164 158 152 150
258 272 240 224 184 238 286 304 308 256 240 135 290 4 325 225 224 219 113 245 336 19 90 354 260 76 348 350 349 223 212 131 119 88 216 123 251 8 100 126 156 150 153 154 154
283 338 175 207 249 298 300 291 284 326 296 245 261 298 280 254 226 186 165 219 252 244 243 208 271 157 184 197 169 215 208 179 121 109 212 209 168 181 153 144 162 163 168 172 172
216 249 325 268 291 287 258 265 286 294 227 231 304 233 277 298 320 215 130 178 221 244 255 132 84 54 130 91 27 359 182 180 188 191 148 190 172 210 195 190 182 180 176 173 177
247 327 353 304 304 23 319 266 297 284 228 251 202 312 296 288 207 282 284 193 194 218 251 13 248 5 182 133 234 281 264 216 225 245 267 129 132 353 246 204 184 179 176 183 176
229 287 281 271 316 60 253 341 324 344 348 79 270 352 280 211 299 291 17 82 117 160 197 140 115 73 266 261 321 303 230 220 206 170 156 204 209 144 75 112 158 173 180 161 159
Height
1534 1533 1532 1530 1529 1527 1525 1523 1522 1521 1519 1518 1517 1515 1512 1509 1506 1505 1503 1505 1505 1506 1508 1509 1512 1513 1515 1515 1516 1516 1524 1527 1517 1519 1510 1505 1506 1511 1514 1516 1519 1521 1522 1523 1531
1532 1531 1529 1528 1526 1524 1523 1521 1520 1519 1518 1516 1515 1513 1511 1507 1503 1499 1498 1498 1500 1503 1505 1507 1509 1511 1513 1512 1513 1514 1523 1515 1507 1506 1506 1507 1505 1508 1513 1516 1520 1521 1522 1525 1530
1530 1527 1526 1525 1523 1523 1520 1519 1518 1518 1516 1515 1514 1512 1510 1506 1501 1495 1494 1494 1496 1498 1502 1505 1506 1509 1509 1509 1509 1509 1515 1506 1504 1504 1506 1504 1508 1508 1511 1516 1516 1519 1522 1526 1529
1527 1527 1526 1524 1523 1521 1519 1518 1517 1516 1514 1513 1511 1509 1508 1506 1506 1493 1492 1491 1492 1494 1497 1501 1503 1507 1506 1507 1505 1508 1507 1509 1506 1501 1503 1504 1505 1508 1510 1512 1513 1516 1519 1523 1527
1527 1527 1525 1523 1521 1519 1518 1517 1516 1514 1513 1512 1510 1508 1504 1504 1494 1493 1491 1491 1490 1491 1492 1496 1499 1501 1503 1502 1503 1504 1505 1508 1508 1504 1505 1506 1505 1507 1510 1512 1513 1516 1519 1522 1526
1527 1525 1523 1522 1520 1518 1517 1515 1514 1513 1512 1511 1509 1506 1504 1499 1486 1485 1485 1486 1488 1489 1490 1493 1494 1497 1498 1499 1502 1501 1502 1506 1507 1505 1507 1508 1506 1506 1510 1511 1513 1516 1519 1522 1524
1526 1524 1522 1520 1519 1517 1516 1515 1513 1511 1510 1509 1507 1504 1500 1484 1483 1482 1483 1483 1484 1486 1487 1490 1492 1497 1496 1497 1498 1499 1504 1504 1505 1506 1510 1510 1514 1512 1510 1512 1513 1517 1520 1522 1524
1525 1524 1522 1520 1518 1517 1516 1513 1511 1509 1508 1506 1505 1502 1492 1482 1480 1477 1478 1478 1480 1482 1484 1488 1490 1493 1495 1494 1496 1500 1504 1515 1507 1506 1512 1513 1522 1512 1513 1512 1514 1517 1519 1523 1525
1525 1524 1522 1521 1518 1516 1514 1511 1508 1506 1505 1504 1502 1501 1487 1480 1478 1475 1476 1476 1478 1480 1481 1485 1488 1488 1490 1492 1504 1502 1517 1512 1511 1506 1509 1515 1519 1513 1512 1513 1514 1515 1515 1519 1523
1525 1524 1523 1521 1518 1516 1514 1510 1507 1504 1502 1500 1499 1503 1485 1480 1475 1471 1470 1474 1476 1478 1481 1482 1484 1484 1487 1495 1510 1510 1509 1508 1512 1508 1508 1515 1515 1511 1509 1510 1511 1512 1515 1517 1518
1525 1524 1523 1521 1518 1517 1515 1510 1509 1504 1501 1499 1496 1491 1482 1479 1475 1469 1470 1472 1475 1478 1480 1478 1484 1489 1486 1487 1490 1494 1500 1503 1503 1503 1508 1516 1513 1509 1505 1505 1505 1504 1514 1517 1518
1525 1523 1522 1522 1520 1519 1518 1517 1518 1517 1501 1491 1486 1486 1482 1479 1478 1468 1469 1475 1474 1477 1477 1483 1488 1481 1481 1484 1488 1490 1497 1504 1505 1500 1506 1512 1510 1502 1501 1502 1503 1504 1508 1511 1515
1527 1524 1522 1522 1520 1520 1519 1519 1517 1514 1510 1487 1484 1482 1480 1480 1477 1470 1470 1471 1471 1476 1479 1486 1479 1477 1480 1481 1487 1488 1496 1506 1503 1504 1503 1507 1513 1503 1499 1501 1503 1505 1506 1509 1510
1527 1527 1523 1521 1523 1521 1520 1520 1516 1512 1515 1491 1484 1482 1479 1476 1475 1470 1471 1474 1471 1475 1478 1483 1474 1475 1478 1480 1478 1489 1479 1484 1496 1507 1523 1506 1533 1505 1502 1503 1505 1504 1504 1506 1508
1527 1526 1527 1524 1523 1522 1522 1519 1514 1510 1518 1488 1484 1481 1478 1477 1475 1472 1472 1474 1475 1477 1480 1480 1476 1474 1474 1474 1473 1485 1477 1486 1492 1502 1510 1510 1526 1513 1502 1509 1507 1505 1505 1505 1505
1526 1526 1526 1527 1524 1523 1520 1517 1515 1515 1515 1493 1484 1481 1479 1475 1474 1473 1473 1475 1475 1476 1473 1478 1471 1472 1473 1474 1473 1477 1483 1492 1497 1508 1526 1508 1516 1516 1508 1506 1507 1506 1506 1505 1505
1525 1524 1524 1526 1527 1523 1519 1517 1520 1518 1495 1498 1492 1484 1481 1480 1475 1474 1477 1477 1484 1489 1486 1482 1476 1471 1475 1480 1479 1480 1496 1525 1528 1530 1530 1498 1513 1505 1503 1501 1503 1505 1506 1507 1507
1524 1523 1522 1524 1525 1522 1519 1520 1522 1495 1494 1495 1496 1488 1491 1482 1477 1475 1478 1480 1477 1477 1488 1489 1492 1477 1475 1480 1483 1486 1493 1515 1519 1530 1516 1491 1513 1508 1500 1500 1502 1504 1506 1507 1509
1521 1521 1520 1522 1523 1522 1522 1524 1510 1499 1495 1497 1495 1498 1498 1487 1483 1480 1475 1482 1481 1480 1491 1490 1489 1478 1477 1477 1481 1485 1493 1487 1499 1494 1514 1508 1508 1504 1502 1503 1504 1506 1507 1508 1510
1520 1518 1517 1519 1520 1523 1525 1517 1499 1494 1497 1498 1503 1507 1500 1493 1490 1483 1478 1482 1482 1480 1479 1485 1493 1481 1480 1478 1479 1481 1482 1499 1504 1508 1511 1505 1513 1511 1506 1506 1506 1507 1507 1508 1510
1520 1517 1516 1516 1519 1523 1529 1512 1496 1493 1493 1496 1498 1502 1499 1495 1489 1487 1483 1484 1484 1483 1480 1480 1486 1491 1482 1485 1486 1488 1488 1487 1493 1502 1513 1517 1514 1492 1497 1499 1503 1504 1506 1508 1510
1519 1519 1516 1515 1520 1519 1518 1504 1498 1492 1493 1492 1492 1492 1497 1491 1490 1488 1484 1485 1487 1486 1485 1482 1487 1495 1487 1482 1480 1480 1482 1486 1508 1500 1501 1514 1515 1489 1490 1493 1497 1502 1505 1508 1510
1517 1517 1514 1515 1519 1517 1509 1505 1500 1493 1491 1490 1490 1488 1486 1486 1493 1485 1485 1486 1485 1484 1486 1487 1490 1502 1496 1490 1484 1483 1480 1480 1488 1500 1501 1518 1510 1490 1491 1495 1498 1500 1504 1507 1511
1518 1517 1514 1513 1511 1513 1512 1505 1500 1494 1493 1490 1490 1488 1488 1486 1482 1485 1487 1486 1486 1487 1487 1487 1487 1491 1501 1488 1486 1486 1480 1479 1489 1510 1504 1505 1501 1495 1495 1496 1498 1500 1502 1506 1509
1516 1513 1512 1514 1510 1510 1510 1506 1502 1497 1493 1490 1487 1488 1490 1490 1485 1483 1485 1487 1486 1485 1484 1485 1488 1482 1482 1479 1479 1479 1479 1481 1485 1490 1496 1493 1493 1493 1491 1492 1493 1495 1500 1503 1506
1514 1514 1511 1510 1507 1506 1504 1501 1499 1492 1490 1489 1489 1486 1485 1488 1488 1487 1483 1483 1482 1484 1483 1483 1489 1483 1483 1481 1481 1483 1480 1481 1484 1483 1485 1486 1490 1487 1487 1489 1494 1495 1498 1500 1504
1513 1513 1513 1508 1507 1507 1505 1501 1501 1491 1489 1487 1488 1488 1485 1486 1485 1484 1483 1481 1480 1482 1484 1485 1488 1494 1493 1483 1484 1492 1483 1481 1479 1477 1481 1490 1488 1488 1489 1490 1491 1494 1496 1498 1501